,,PA_Meas_PMT16A,,PR_Meas_QMR101_102,,RH_Meas_QMH101,,SR_Meas_QMS101,,TA_Meas_QMH101,,GenWind,,GenWind,
time,status,PA,status,PR,status,RH,status,SR,status,TA,status,DirAvg,status,SpdAvg,
2016-09-10, 00:00:04,VALID,916.71,VALID,0,VALID,92.0375,VALID,72.3079,VALID,24.0311,VALID,28,VALID,2.29219,
2016-09-10, 00:01:04,VALID,916.736,VALID,0,VALID,90.5586,VALID,69.6219,VALID,23.953,VALID,341,VALID,0.580469,
2016-09-10, 00:02:04,VALID,916.743,VALID,0,VALID,95.2241,VALID,65.9689,VALID,23.8749,VALID,22,VALID,0.164453,
2016-09-10, 00:03:04,VALID,916.733,VALID,0,VALID,93.7528,VALID,63.6052,VALID,23.7968,VALID,33,VALID,1.27383,
2016-09-10, 00:04:04,VALID,916.777,VALID,0,VALID,98.4793,VALID,61.5638,VALID,23.7382,VALID,35,VALID,0.697266,
2016-09-10, 00:05:04,VALID,916.779,VALID,0,VALID,104,VALID,60.4894,VALID,23.7382,VALID,41,VALID,0,
2016-09-10, 00:06:04,VALID,916.785,VALID,0,VALID,98.4107,VALID,59.415,VALID,23.7773,VALID,26,VALID,0,
2016-09-10, 00:07:04,VALID,916.784,VALID,0,VALID,103.008,VALID,57.6959,VALID,23.7187,VALID,20,VALID,0.0121094,
2016-09-10, 00:08:04,VALID,916.835,VALID,0,VALID,104,VALID,55.8694,VALID,23.7382,VALID,27,VALID,0,
2016-09-10, 14:02:04,VALID,918.538,VALID,0,INVALID,112.102,VALID,100.135,VALID,18.6333,VALID,151,VALID,1.24023,
2016-09-10, 14:03:04,VALID,918.529,VALID,0,INVALID,112.102,VALID,104.648,VALID,18.6528,VALID,148,VALID,1.49219,
2016-09-10, 14:04:04,VALID,918.545,VALID,0,INVALID,112.102,VALID,108.838,VALID,18.6528,VALID,145,VALID,1.5707,
2016-09-10, 14:05:04,VALID,918.552,VALID,0,INVALID,112.118,VALID,112.921,VALID,18.6918,VALID,156,VALID,1.45156,
2016-09-10, 14:06:04,VALID,918.581,VALID,0,INVALID,112.087,VALID,116.896,VALID,18.7892,VALID,140,VALID,1.08945,
2016-09-10, 14:07:04,VALID,918.587,VALID,0,INVALID,112.087,VALID,120.227,VALID,18.8282,VALID,129,VALID,1.75273,
2016-09-10, 14:08:04,VALID,918.609,VALID,0,INVALID,112.11,VALID,123.235,VALID,18.8672,VALID,129,VALID,1.49531,
2016-09-10, 14:09:04,VALID,918.616,VALID,0,INVALID,112.102,VALID,126.136,VALID,18.9257,VALID,133,VALID,1.15742,
2016-09-10, 14:10:04,VALID,918.633,VALID,0,INVALID,112.133,VALID,129.037,VALID,18.9452,VALID,144,VALID,1.71758,
2016-09-10, 14:11:04,VALID,918.624,VALID,0,INVALID,112.201,VALID,131.938,VALID,18.9257,VALID,138,VALID,1.58633,
2016-09-10, 14:12:04,VALID,918.667,VALID,0,INVALID,112.224,VALID,134.516,VALID,18.9842,VALID,154,VALID,1.46406,
2016-09-10, 14:13:04,VALID,918.666,VALID,0,INVALID,112.262,VALID,138.277,VALID,18.9842,VALID,145,VALID,1.51289,
2016-09-10, 14:14:04,VALID,918.667,VALID,0,INVALID,112.285,VALID,142.574,VALID,19.0427,VALID,125,VALID,1.17266,
2016-09-10, 14:15:04,VALID,918.648,VALID,0,INVALID,112.308,VALID,146.335,VALID,19.0427,VALID,123,VALID,1.88086,
2016-09-10, 14:16:04,VALID,918.678,VALID,0,INVALID,112.354,VALID,149.773,VALID,19.0817,VALID,136,VALID,1.24766,
2016-09-10, 14:17:04,VALID,918.703,VALID,0,INVALID,112.331,VALID,154.285,VALID,19.1792,VALID,132,VALID,1.1875,
2016-09-10, 14:18:04,VALID,918.698,VALID,0,INVALID,112.339,VALID,158.798,VALID,19.2182,VALID,129,VALID,0.926562,
2016-09-10, 14:19:04,VALID,918.722,VALID,0,INVALID,112.293,VALID,164.063,VALID,19.3352,VALID,112,VALID,1.33867,
2016-09-10, 14:20:04,VALID,918.735,VALID,0,INVALID,112.499,VALID,169.757,VALID,19.1778,VALID,103,VALID,1.66094,
2016-09-10, 14:21:04,VALID,918.746,VALID,0,INVALID,112.651,VALID,174.162,VALID,19.1792,VALID,109,VALID,1.50312,
2016-09-10, 14:22:04,VALID,918.735,VALID,0,INVALID,112.659,VALID,172.228,VALID,19.2753,VALID,114,VALID,1.45859,
2016-09-10, 14:23:04,VALID,918.767,VALID,0,INVALID,112.628,VALID,166.104,VALID,19.3728,VALID,137,VALID,1.5293,
2016-09-10, 14:24:04,VALID,918.796,VALID,0,INVALID,112.644,VALID,163.418,VALID,19.4508,VALID,155,VALID,1.58086,
2016-09-10, 14:25:04,VALID,918.79,VALID,0,INVALID,112.834,VALID,168.575,VALID,19.3533,VALID,143,VALID,1.86602,
2016-09-10, 14:26:04,VALID,918.851,VALID,0,INVALID,113.025,VALID,176.633,VALID,19.3143,VALID,147,VALID,1.48086,
2016-09-10, 14:27:04,VALID,918.813,VALID,0,INVALID,113.231,VALID,180.823,VALID,19.2363,VALID,152,VALID,1.75898,
2016-09-10, 14:28:04,VALID,918.8,VALID,0,INVALID,113.299,VALID,180.716,VALID,19.2558,VALID,147,VALID,1.62617,
2016-09-10, 14:29:04,VALID,918.778,VALID,0,INVALID,113.345,VALID,180.071,VALID,19.2558,VALID,145,VALID,1.27422,
2016-09-10, 14:30:04,VALID,918.788,VALID,0,INVALID,113.436,VALID,179.427,VALID,19.2558,VALID,149,VALID,1.15547,
2016-09-10, 14:31:04,VALID,918.746,VALID,0,INVALID,113.436,VALID,175.451,VALID,19.3338,VALID,143,VALID,0.675781,
2016-09-10, 14:32:04,VALID,918.731,VALID,0,INVALID,113.398,VALID,176.418,VALID,19.3923,VALID,163,VALID,0.958984,
2016-09-10, 14:33:04,VALID,918.756,VALID,0,INVALID,113.475,VALID,180.071,VALID,19.4118,VALID,158,VALID,0,
2016-09-10, 14:34:04,VALID,918.728,VALID,0,INVALID,113.467,VALID,175.559,VALID,19.5093,VALID,137,VALID,0,
2016-09-10, 14:35:04,VALID,918.775,VALID,0,INVALID,113.414,VALID,178.245,VALID,19.6638,VALID,144,VALID,0,
2016-09-10, 14:36:04,VALID,918.8,VALID,0,INVALID,113.574,VALID,178.137,VALID,19.6248,VALID,93,VALID,0.279687,
2016-09-10, 14:37:04,VALID,918.789,VALID,0,INVALID,113.688,VALID,175.237,VALID,19.7808,VALID,83,VALID,0,
2016-09-10, 14:38:04,VALID,918.803,VALID,0,INVALID,113.993,VALID,174.914,VALID,19.7238,VALID,95,VALID,0.597656,
2016-09-10, 14:39:04,VALID,918.804,VALID,0,INVALID,114.069,VALID,177.708,VALID,19.8198,VALID,83,VALID,0.855469,
2016-09-10, 14:40:04,VALID,918.822,VALID,0,INVALID,114.191,VALID,177.17,VALID,19.8588,VALID,81,VALID,0,
2016-09-10, 14:41:04,VALID,918.843,VALID,0,INVALID,114.603,VALID,162.236,VALID,19.8198,VALID,77,VALID,0,
2016-09-10, 14:42:04,VALID,918.817,VALID,0,INVALID,114.832,VALID,157.509,VALID,19.8393,VALID,77,VALID,0,
2016-09-10, 14:43:04,VALID,918.881,VALID,0,INVALID,114.923,VALID,158.905,VALID,19.8978,VALID,77,VALID,0,
2016-09-10, 14:44:04,VALID,918.9,VALID,0,INVALID,115.281,VALID,156.005,VALID,19.9368,VALID,77,VALID,0,
2016-09-10, 14:45:04,VALID,918.913,VALID,0,INVALID,115.716,VALID,167.393,VALID,19.8573,VALID,77,VALID,0,
2016-09-10, 14:46:04,VALID,918.924,VALID,0,INVALID,115.998,VALID,176.096,VALID,19.8183,VALID,63,VALID,0,
2016-09-10, 14:47:04,VALID,918.953,VALID,0,INVALID,116.432,VALID,181.576,VALID,19.7988,VALID,69,VALID,0,
2016-09-10, 14:48:04,VALID,918.94,VALID,0,INVALID,116.913,VALID,175.451,VALID,19.7208,VALID,72,VALID,0,
2016-09-10, 14:49:04,VALID,918.957,VALID,0,INVALID,117.05,VALID,182.22,VALID,19.7988,VALID,69,VALID,0,
2016-09-10, 14:50:04,VALID,918.978,VALID,0,INVALID,117.324,VALID,198.444,VALID,19.8393,VALID,75,VALID,0,
2016-09-10, 14:51:04,VALID,919,VALID,0,INVALID,117.523,VALID,211.444,VALID,19.8363,VALID,70,VALID,0,
2016-09-10, 14:52:04,VALID,919.014,VALID,0,INVALID,117.728,VALID,208.651,VALID,19.9158,VALID,89,VALID,0,
2016-09-10, 14:53:04,VALID,918.992,VALID,0,INVALID,118.064,VALID,215.527,VALID,19.9353,VALID,83,VALID,0,
2016-09-10, 14:54:04,VALID,919.001,VALID,0,INVALID,118.293,VALID,211.337,VALID,19.8783,VALID,79,VALID,0,
2016-09-10, 14:55:04,VALID,918.989,VALID,0,INVALID,118.308,VALID,227.238,VALID,19.8183,VALID,81,VALID,0,
2016-09-10, 14:56:04,VALID,918.991,VALID,0,INVALID,118.209,VALID,253.454,VALID,19.8783,VALID,86,VALID,0,
2016-09-10, 14:57:04,VALID,918.971,VALID,0,INVALID,118.056,VALID,276.661,VALID,19.9368,VALID,81,VALID,0,
2016-09-10, 14:58:04,VALID,918.943,VALID,0,INVALID,118.049,VALID,285.579,VALID,20.0913,VALID,104,VALID,0,
2016-09-10, 14:59:04,VALID,918.934,VALID,0,INVALID,118.132,VALID,292.67,VALID,20.2684,VALID,89,VALID,0,
2016-09-10, 15:00:04,VALID,918.971,VALID,0,INVALID,118.155,VALID,292.455,VALID,20.4813,VALID,76,VALID,0,
2016-09-10, 15:01:04,VALID,918.931,VALID,0,INVALID,118.178,VALID,302.877,VALID,20.6179,VALID,119,VALID,0.295312,
2016-09-10, 15:02:04,VALID,918.932,VALID,0,INVALID,118.041,VALID,313.084,VALID,20.7154,VALID,114,VALID,0,
2016-09-10, 15:03:04,VALID,918.914,VALID,0,INVALID,116.478,VALID,317.703,VALID,20.5609,VALID,113,VALID,0,
2016-09-10, 15:04:04,VALID,918.925,VALID,0,INVALID,116.074,VALID,307.389,VALID,20.5789,VALID,112,VALID,0,
2016-09-10, 15:05:04,VALID,918.944,VALID,0,INVALID,116.097,VALID,325.869,VALID,20.6553,VALID,126,VALID,0,
2016-09-10, 15:06:04,VALID,918.945,VALID,0,INVALID,116.234,VALID,343.167,VALID,20.7934,VALID,114,VALID,0,
2016-09-10, 15:07:04,VALID,918.936,VALID,0,INVALID,116.364,VALID,367.019,VALID,20.969,VALID,119,VALID,0.401953,
2016-09-10, 15:08:04,VALID,918.952,VALID,0,INVALID,115.022,VALID,366.159,VALID,20.9479,VALID,147,VALID,0,
2016-09-10, 15:09:04,VALID,918.959,VALID,0,INVALID,114.237,VALID,368.738,VALID,20.9089,VALID,151,VALID,0,
2016-09-10, 15:10:04,VALID,918.97,VALID,0,INVALID,115.495,VALID,376.689,VALID,21.008,VALID,150,VALID,0,
2016-09-10, 15:11:04,VALID,918.986,VALID,0,INVALID,115.723,VALID,387.11,VALID,21.2031,VALID,151,VALID,0,
2016-09-10, 15:12:04,VALID,919.014,VALID,0,INVALID,115.136,VALID,382.598,VALID,21.3201,VALID,147,VALID,0,
2016-09-10, 15:13:04,VALID,919.021,VALID,0,INVALID,114.176,VALID,388.292,VALID,21.4567,VALID,148,VALID,0,
2016-09-10, 15:14:04,VALID,919.037,VALID,0,INVALID,109.358,VALID,381.631,VALID,21.5737,VALID,147,VALID,0,
2016-09-10, 15:15:04,VALID,919.07,VALID,0,VALID,97.1299,VALID,390.441,VALID,21.5932,VALID,148,VALID,0,
2016-09-10, 15:16:04,VALID,919.068,VALID,0,VALID,102.245,VALID,393.557,VALID,21.6306,VALID,164,VALID,0,
2016-09-10, 15:17:04,VALID,919.093,VALID,0,VALID,102.169,VALID,401.185,VALID,21.7867,VALID,167,VALID,0,
2016-09-10, 15:18:04,VALID,919.116,VALID,0,VALID,96.5429,VALID,405.59,VALID,21.9038,VALID,161,VALID,0,
2016-09-10, 15:19:04,VALID,919.117,VALID,0,VALID,93.7223,VALID,411.5,VALID,22.1184,VALID,141,VALID,0,
2016-09-10, 15:20:04,VALID,919.115,VALID,0,VALID,88.6908,VALID,417.731,VALID,22.2371,VALID,149,VALID,0,
2016-09-10, 15:21:04,VALID,919.132,VALID,0,VALID,90.8178,VALID,405.053,VALID,22.2159,VALID,154,VALID,0,
2016-09-10, 15:22:04,VALID,919.133,VALID,0,VALID,90.6958,VALID,408.706,VALID,22.294,VALID,139,VALID,0,
2016-09-10, 15:23:04,VALID,919.122,VALID,0,VALID,86.1294,VALID,418.161,VALID,22.3135,VALID,167,VALID,1.72812,
2016-09-10, 15:24:04,VALID,919.137,VALID,0,VALID,88.7747,VALID,426.004,VALID,22.333,VALID,157,VALID,1.5707,
2016-09-10, 15:25:04,VALID,919.133,VALID,0,VALID,87.654,VALID,417.087,VALID,22.294,VALID,156,VALID,0.00195313,
2016-09-10, 15:26:04,VALID,919.09,VALID,0,VALID,87.4939,VALID,431.161,VALID,22.255,VALID,158,VALID,0.679297,
2016-09-10, 15:27:04,VALID,919.117,VALID,0,VALID,88.4774,VALID,423.426,VALID,22.2159,VALID,162,VALID,0.370313,
2016-09-10, 15:28:04,VALID,919.109,VALID,0,VALID,84.8486,VALID,436.426,VALID,22.294,VALID,159,VALID,0.917969,
2016-09-10, 15:29:04,VALID,919.157,VALID,0,VALID,86.8307,VALID,434.707,VALID,22.333,VALID,162,VALID,1.06992,
2016-09-10, 15:30:04,VALID,919.084,VALID,0,VALID,90.5281,VALID,430.839,VALID,22.4501,VALID,181,VALID,0,
2016-09-10, 15:31:04,VALID,919.089,VALID,0,VALID,89.476,VALID,428.798,VALID,22.6062,VALID,176,VALID,0.212109,
2016-09-10, 15:32:04,VALID,919.088,VALID,0,VALID,86.3733,VALID,444.377,VALID,22.7606,VALID,158,VALID,0,
2016-09-10, 15:33:04,VALID,919.083,VALID,0,VALID,85.4432,VALID,445.021,VALID,22.8794,VALID,151,VALID,0,
2016-09-10, 15:34:04,VALID,919.077,VALID,0,VALID,82.249,VALID,413.863,VALID,22.9557,VALID,167,VALID,1.08477,
2016-09-10, 15:35:04,VALID,919.105,VALID,0,VALID,82.493,VALID,447.063,VALID,22.9948,VALID,152,VALID,0,
2016-09-10, 15:36:04,VALID,919.133,VALID,0,VALID,82.897,VALID,421.599,VALID,23.1119,VALID,132,VALID,0.130469,
2016-09-10, 15:37:04,VALID,919.093,VALID,0,VALID,83.2706,VALID,448.244,VALID,23.2485,VALID,126,VALID,0,
2016-09-10, 15:38:04,VALID,919.079,VALID,0,VALID,82.8818,VALID,445.773,VALID,23.4827,VALID,81,VALID,0,
2016-09-10, 15:39:04,VALID,919.123,VALID,0,VALID,78.079,VALID,351.333,VALID,23.5803,VALID,144,VALID,0.261328,
2016-09-10, 15:40:04,VALID,919.111,VALID,0,VALID,79.2683,VALID,293.314,VALID,23.5217,VALID,120,VALID,0.24375,
2016-09-10, 15:41:04,VALID,919.06,VALID,0,VALID,77.2252,VALID,427.401,VALID,23.4046,VALID,107,VALID,0.997266,
2016-09-10, 15:42:04,VALID,919.077,VALID,0,VALID,76.9889,VALID,431.699,VALID,23.3656,VALID,126,VALID,0.503906,
2016-09-10, 15:43:04,VALID,919.051,VALID,0,VALID,76.0359,VALID,454.584,VALID,23.4028,VALID,110,VALID,0.540234,
2016-09-10, 15:44:04,VALID,919.044,VALID,0,VALID,77.027,VALID,496.486,VALID,23.5217,VALID,106,VALID,0.00234375,
2016-09-10, 15:46:04,VALID,919.07,VALID,0,VALID,78.4907,VALID,489.18,VALID,23.6956,VALID,152,VALID,0.090625,
2016-09-10, 15:47:04,VALID,919.106,VALID,0,VALID,76.7449,VALID,488.213,VALID,23.9316,VALID,157,VALID,0,
2016-09-10, 15:48:04,VALID,919.11,VALID,0,VALID,72.4529,VALID,479.08,VALID,24.0488,VALID,102,VALID,0.0445312,
2016-09-10, 15:49:04,VALID,919.105,VALID,0,VALID,74.5494,VALID,501.75,VALID,24.0665,VALID,103,VALID,0,
2016-09-10, 15:50:04,VALID,919.12,VALID,0,VALID,72.3843,VALID,513.461,VALID,24.1445,VALID,155,VALID,0.649609,
2016-09-10, 15:51:04,VALID,919.145,VALID,0,VALID,70.974,VALID,515.395,VALID,24.1836,VALID,168,VALID,0.300391,
2016-09-10, 15:52:04,VALID,919.136,VALID,0,VALID,72.6435,VALID,511.957,VALID,24.1641,VALID,163,VALID,0,
2016-09-10, 15:53:04,VALID,919.104,VALID,0,VALID,72.4682,VALID,498.205,VALID,24.3221,VALID,161,VALID,0,
2016-09-10, 15:54:04,VALID,919.097,VALID,0,VALID,71.3857,VALID,506.263,VALID,24.3611,VALID,150,VALID,0.341797,
2016-09-10, 15:55:04,VALID,919.094,VALID,0,VALID,71.5763,VALID,500.246,VALID,24.3611,VALID,154,VALID,0.0289063,
2016-09-10, 15:56:04,VALID,919.118,VALID,0,VALID,72.392,VALID,498.205,VALID,24.4002,VALID,138,VALID,0,
2016-09-10, 15:57:04,VALID,919.102,VALID,0,VALID,67.8408,VALID,498.957,VALID,24.4569,VALID,136,VALID,0.216406,
2016-09-10, 15:58:04,VALID,919.115,VALID,0,VALID,66.8802,VALID,504.221,VALID,24.3788,VALID,151,VALID,0,
2016-09-10, 15:59:04,VALID,919.082,VALID,0,VALID,69.8991,VALID,511.098,VALID,24.4959,VALID,152,VALID,0,
2016-09-10, 16:00:04,VALID,919.071,VALID,0,VALID,69.1215,VALID,522.057,VALID,24.6716,VALID,151,VALID,0,
2016-09-10, 16:01:04,VALID,919.093,VALID,0,VALID,67.2538,VALID,527.214,VALID,24.7302,VALID,176,VALID,0,
2016-09-10, 16:02:04,VALID,919.075,VALID,0,VALID,66.8726,VALID,532.908,VALID,24.9645,VALID,164,VALID,0,
2016-09-10, 16:03:04,VALID,919.07,VALID,0,VALID,64.1663,VALID,535.594,VALID,25.0426,VALID,157,VALID,0,
2016-09-10, 16:04:04,VALID,919.096,VALID,0,VALID,66.3847,VALID,542.578,VALID,25.1012,VALID,186,VALID,0,
2016-09-10, 16:05:04,VALID,919.115,VALID,0,VALID,64.6847,VALID,549.024,VALID,25.1969,VALID,136,VALID,0,
2016-09-10, 16:06:04,VALID,919.112,VALID,0,VALID,64.3493,VALID,552.033,VALID,25.3336,VALID,136,VALID,0,
2016-09-10, 16:07:04,VALID,919.125,VALID,0,VALID,62.5959,VALID,555.363,VALID,25.3922,VALID,134,VALID,0,
2016-09-10, 16:08:04,VALID,919.155,VALID,0,VALID,63.6174,VALID,561.38,VALID,25.4898,VALID,112,VALID,0,
2016-09-10, 16:09:04,VALID,919.177,VALID,0,VALID,62.3672,VALID,559.231,VALID,25.5484,VALID,130,VALID,0,
2016-09-10, 16:10:04,VALID,919.216,VALID,0,VALID,62.9389,VALID,564.818,VALID,25.5484,VALID,112,VALID,0,
2016-09-10, 16:11:04,VALID,919.196,VALID,0,VALID,62.4358,VALID,566,VALID,25.7241,VALID,135,VALID,0,
2016-09-10, 16:12:04,VALID,919.229,VALID,0,VALID,59.4322,VALID,568.579,VALID,25.7827,VALID,128,VALID,0,
2016-09-10, 16:13:04,VALID,919.237,VALID,0,VALID,59.8362,VALID,569.438,VALID,25.8608,VALID,138,VALID,0,
2016-09-10, 16:14:04,VALID,919.195,VALID,0,VALID,59.7066,VALID,566.752,VALID,25.9214,VALID,120,VALID,0,
2016-09-10, 16:15:04,VALID,919.223,VALID,0,VALID,58.7308,VALID,572.661,VALID,25.7632,VALID,146,VALID,0,
2016-09-10, 16:16:04,VALID,919.161,VALID,0,VALID,59.9582,VALID,582.331,VALID,25.7827,VALID,145,VALID,0,
2016-09-10, 16:17:04,VALID,919.183,VALID,0,VALID,60.6443,VALID,589.422,VALID,25.9389,VALID,109,VALID,0.00429688,
2016-09-10, 16:18:04,VALID,919.172,VALID,0,VALID,61.7268,VALID,589.852,VALID,25.9585,VALID,147,VALID,0,
2016-09-10, 16:19:04,VALID,919.196,VALID,0,VALID,61.5362,VALID,596.083,VALID,25.7847,VALID,148,VALID,0,
2016-09-10, 16:20:04,VALID,919.168,VALID,0,VALID,64.3493,VALID,600.166,VALID,25.8218,VALID,146,VALID,0,
2016-09-10, 16:21:04,VALID,919.153,VALID,0,VALID,61.6048,VALID,601.026,VALID,26.019,VALID,143,VALID,0,
2016-09-10, 16:22:04,VALID,919.148,VALID,0,VALID,61.3914,VALID,600.381,VALID,25.9585,VALID,144,VALID,0,
2016-09-10, 16:23:04,VALID,919.118,VALID,0,VALID,58.7994,VALID,604.571,VALID,25.978,VALID,152,VALID,0,
2016-09-10, 16:24:04,VALID,919.102,VALID,0,VALID,61.7573,VALID,606.828,VALID,25.9585,VALID,175,VALID,0,
2016-09-10, 16:25:04,VALID,919.059,VALID,0,VALID,60.3393,VALID,606.505,VALID,26.0561,VALID,185,VALID,0.0113281,
2016-09-10, 16:26:04,VALID,919.051,VALID,0,VALID,58.3649,VALID,612.522,VALID,26.1518,VALID,218,VALID,0,
2016-09-10, 16:27:04,VALID,918.991,VALID,0,VALID,58.0828,VALID,609.406,VALID,26.271,VALID,218,VALID,0,
2016-09-10, 16:28:04,VALID,918.992,VALID,0,VALID,58.0218,VALID,611.233,VALID,26.4057,VALID,204,VALID,0,
2016-09-10, 16:29:04,VALID,918.995,VALID,0,VALID,58.3191,VALID,616.068,VALID,26.4057,VALID,186,VALID,0,
2016-09-10, 16:30:04,VALID,918.971,VALID,0,VALID,58.9443,VALID,615.745,VALID,26.4057,VALID,182,VALID,0,
2016-09-10, 16:31:04,VALID,918.983,VALID,0,VALID,58.1362,VALID,616.712,VALID,26.4838,VALID,182,VALID,0,
2016-09-10, 16:32:04,VALID,918.959,VALID,0,VALID,57.9608,VALID,612.737,VALID,26.5619,VALID,307,VALID,0.333594,
2016-09-10, 16:33:04,VALID,918.959,VALID,0,VALID,59.333,VALID,620.15,VALID,26.4838,VALID,307,VALID,0,
2016-09-10, 16:34:04,VALID,918.936,VALID,0,VALID,59.9658,VALID,622.836,VALID,26.5013,VALID,307,VALID,0,
2016-09-10, 16:35:04,VALID,918.951,VALID,0,VALID,58.4259,VALID,620.58,VALID,26.7377,VALID,307,VALID,0,
2016-09-10, 16:36:04,VALID,918.905,VALID,0,VALID,54.2787,VALID,615.745,VALID,26.7573,VALID,305,VALID,0,
2016-09-10, 16:37:04,VALID,918.849,VALID,0,VALID,53.7756,VALID,621.01,VALID,26.9331,VALID,307,VALID,0,
2016-09-10, 16:38:04,VALID,918.875,VALID,0,VALID,57.4348,VALID,616.282,VALID,27.0698,VALID,289,VALID,0,
2016-09-10, 16:39:04,VALID,918.847,VALID,0,VALID,56.9088,VALID,609.514,VALID,26.894,VALID,271,VALID,0,
2016-09-10, 16:40:04,VALID,918.832,VALID,0,VALID,58.4411,VALID,613.811,VALID,26.6771,VALID,274,VALID,0,
2016-09-10, 16:41:04,VALID,918.836,VALID,0,VALID,58.4106,VALID,617.035,VALID,26.5794,VALID,273,VALID,0,
2016-09-10, 16:42:04,VALID,918.865,VALID,0,VALID,58.8223,VALID,624.233,VALID,26.601,VALID,266,VALID,0,
2016-09-10, 16:43:04,VALID,918.891,VALID,0,VALID,59.112,VALID,627.027,VALID,26.5599,VALID,272,VALID,0,
2016-09-10, 16:44:04,VALID,918.861,VALID,0,VALID,59.7828,VALID,630.035,VALID,26.5599,VALID,301,VALID,0,
2016-09-10, 16:45:04,VALID,918.851,VALID,0,VALID,56.8021,VALID,626.919,VALID,26.6401,VALID,330,VALID,0,
2016-09-10, 16:46:04,VALID,918.826,VALID,0,VALID,57.5415,VALID,642.068,VALID,26.6576,VALID,332,VALID,0,
2016-09-10, 16:47:04,VALID,918.785,VALID,0,VALID,59.7523,VALID,674.086,VALID,26.7768,VALID,342,VALID,0.201172,
2016-09-10, 16:48:04,VALID,918.794,VALID,0,VALID,55.8034,VALID,659.151,VALID,26.8919,VALID,343,VALID,0.0316406,
2016-09-10, 16:49:04,VALID,918.771,VALID,0,VALID,56.0245,VALID,670.433,VALID,27.0091,VALID,343,VALID,0,
2016-09-10, 16:50:04,VALID,918.751,VALID,0,VALID,56.642,VALID,667.639,VALID,27.2456,VALID,313,VALID,0,
2016-09-10, 16:51:04,VALID,918.751,VALID,0,VALID,53.2496,VALID,662.052,VALID,27.441,VALID,312,VALID,0,
2016-09-10, 16:52:04,VALID,918.751,VALID,0,VALID,53.7908,VALID,672.474,VALID,27.5561,VALID,318,VALID,0,
2016-09-10, 16:53:04,VALID,918.735,VALID,0,VALID,55.7729,VALID,660.118,VALID,27.7515,VALID,313,VALID,0.00742187,
2016-09-10, 16:54:04,VALID,918.689,VALID,0,VALID,55.4756,VALID,661.838,VALID,27.6364,VALID,355,VALID,0.492188,
2016-09-10, 16:55:04,VALID,918.702,VALID,0,VALID,54.4464,VALID,680.317,VALID,27.4605,VALID,273,VALID,0.0078125,
2016-09-10, 16:56:04,VALID,918.678,VALID,0,VALID,54.5455,VALID,681.929,VALID,27.187,VALID,261,VALID,1.26406,
2016-09-10, 16:57:04,VALID,918.678,VALID,0,VALID,57.3891,VALID,671.507,VALID,26.8549,VALID,261,VALID,0.0195313,
2016-09-10, 16:58:04,VALID,918.632,VALID,0,VALID,58.4868,VALID,679.565,VALID,26.7357,VALID,240,VALID,0.325,
2016-09-10, 16:59:04,VALID,918.673,VALID,0,VALID,58.5555,VALID,681.284,VALID,26.7162,VALID,251,VALID,0.623828,
2016-09-10, 17:00:04,VALID,918.647,VALID,0,VALID,58.1895,VALID,670.648,VALID,26.6771,VALID,236,VALID,1.09961,
2016-09-10, 17:01:04,VALID,918.617,VALID,0,VALID,56.7335,VALID,635.085,VALID,26.6205,VALID,263,VALID,0.905469,
2016-09-10, 17:02:04,VALID,918.646,VALID,0,VALID,57.9303,VALID,617.035,VALID,26.601,VALID,221,VALID,0.4875,
2016-09-10, 17:03:04,VALID,918.645,VALID,0,VALID,56.2761,VALID,682.036,VALID,26.6576,VALID,218,VALID,0.546094,
2016-09-10, 17:04:04,VALID,918.641,VALID,0,VALID,57.1299,VALID,677.631,VALID,26.6966,VALID,244,VALID,0.255859,
2016-09-10, 17:05:04,VALID,918.623,VALID,0,VALID,55.5747,VALID,590.174,VALID,26.6771,VALID,217,VALID,0.562109,
2016-09-10, 17:06:04,VALID,918.645,VALID,0,VALID,53.3487,VALID,669.573,VALID,26.638,VALID,243,VALID,0.820703,
2016-09-10, 17:07:04,VALID,918.627,VALID,0,VALID,55.1097,VALID,626.274,VALID,26.6401,VALID,223,VALID,0,
2016-09-10, 17:08:04,VALID,918.617,VALID,0,VALID,54.881,VALID,731.459,VALID,26.6576,VALID,248,VALID,0.0976563,
2016-09-10, 17:09:04,VALID,918.584,VALID,0,VALID,55.4222,VALID,732.856,VALID,26.8159,VALID,253,VALID,0.0625,
2016-09-10, 17:10:04,VALID,918.592,VALID,0,VALID,52.5177,VALID,725.228,VALID,26.8724,VALID,273,VALID,0.8375,
2016-09-10, 17:11:04,VALID,918.588,VALID,0,VALID,52.533,VALID,766.593,VALID,26.7552,VALID,246,VALID,0.980859,
2016-09-10, 17:12:04,VALID,918.552,VALID,0,VALID,53.6536,VALID,752.518,VALID,26.6771,VALID,228,VALID,0.200391,
2016-09-10, 17:13:04,VALID,918.518,VALID,0,VALID,53.341,VALID,734.145,VALID,26.8333,VALID,245,VALID,0.234375,
2016-09-10, 17:14:04,VALID,918.502,VALID,0,VALID,52.4034,VALID,729.311,VALID,26.9115,VALID,218,VALID,0,
2016-09-10, 17:15:04,VALID,918.498,VALID,0,VALID,54.3778,VALID,716.095,VALID,27.0503,VALID,219,VALID,0,
2016-09-10, 17:16:04,VALID,918.462,VALID,0,VALID,53.9814,VALID,770.353,VALID,27.1263,VALID,260,VALID,1.62812,
2016-09-10, 17:17:04,VALID,918.473,VALID,0,VALID,51.8469,VALID,759.609,VALID,26.894,VALID,249,VALID,0.28125,
2016-09-10, 17:18:04,VALID,918.432,VALID,0,VALID,53.2801,VALID,777.444,VALID,26.9917,VALID,247,VALID,0,
2016-09-10, 17:19:04,VALID,918.415,VALID,0,VALID,54.172,VALID,755.096,VALID,27.0698,VALID,319,VALID,0.213281,
2016-09-10, 17:20:04,VALID,918.409,VALID,0,VALID,54.8733,VALID,777.122,VALID,27.1654,VALID,284,VALID,0,
2016-09-10, 17:21:04,VALID,918.38,VALID,0,VALID,51.3361,VALID,696.541,VALID,27.1284,VALID,223,VALID,1.35781,
2016-09-10, 17:22:04,VALID,918.35,VALID,0,VALID,52.9218,VALID,765.196,VALID,27.1284,VALID,230,VALID,0.606641,
2016-09-10, 17:23:04,VALID,918.336,VALID,0,VALID,53.5011,VALID,785.18,VALID,27.0677,VALID,241,VALID,0.646094,
2016-09-10, 17:24:04,VALID,918.353,VALID,0,VALID,54.7514,VALID,780.667,VALID,27.1459,VALID,253,VALID,0,
2016-09-10, 17:25:04,VALID,918.366,VALID,0,VALID,54.2254,VALID,765.948,VALID,27.2261,VALID,257,VALID,0.0148437,
2016-09-10, 17:26:04,VALID,918.347,VALID,0,VALID,54.8657,VALID,736.617,VALID,27.3238,VALID,274,VALID,0,
2016-09-10, 17:27:04,VALID,918.329,VALID,0,VALID,53.9357,VALID,639.49,VALID,27.4019,VALID,250,VALID,0.738672,
2016-09-10, 17:28:04,VALID,918.346,VALID,0,VALID,51.2065,VALID,723.401,VALID,27.1654,VALID,251,VALID,1.11484,
2016-09-10, 17:29:04,VALID,918.333,VALID,0,VALID,52.7998,VALID,791.089,VALID,27.0091,VALID,241,VALID,0.185156,
2016-09-10, 17:30:04,VALID,918.292,VALID,0,VALID,54.5532,VALID,716.203,VALID,27.0091,VALID,261,VALID,0.773828,
2016-09-10, 17:31:04,VALID,918.261,VALID,0,VALID,52.1899,VALID,794.957,VALID,26.9505,VALID,271,VALID,0.451172,
2016-09-10, 17:32:04,VALID,918.23,VALID,0,VALID,52.7617,VALID,823.214,VALID,26.8724,VALID,299,VALID,0.663281,